Year,Month,Day,Hour,Minute,Value (Times are PST for temperature in C)
2009,09,24,00,00,13.20
2009,09,24,00,01,13.20
2009,09,24,00,02,13.20
2009,09,24,00,03,13.20
2009,09,24,00,04,13.10
2009,09,24,00,05,13.10
2009,09,24,00,06,13.10
2009,09,24,00,07,13.10
2009,09,24,00,08,13.00
2009,09,24,00,09,13.00
2009,09,24,00,10,12.90
2009,09,24,00,11,12.90
2009,09,24,00,12,12.90
2009,09,24,00,13,12.90
2009,09,24,00,14,12.80
2009,09,24,00,15,12.80
2009,09,24,00,16,12.80
2009,09,24,00,17,12.70
2009,09,24,00,18,12.70
2009,09,24,00,19,12.70
2009,09,24,00,20,12.60
2009,09,24,00,21,12.60
2009,09,24,00,22,12.60
2009,09,24,00,23,12.50
2009,09,24,00,24,12.50
2009,09,24,00,25,12.40
2009,09,24,00,26,12.40
2009,09,24,00,27,12.40
2009,09,24,00,28,12.30
2009,09,24,00,29,12.30
2009,09,24,00,30,12.40
2009,09,24,00,31,12.40
2009,09,24,00,32,12.40
2009,09,24,00,33,12.40
2009,09,24,00,34,12.30
2009,09,24,00,35,12.30
2009,09,24,00,36,12.30
2009,09,24,00,37,12.30
2009,09,24,00,38,12.30
2009,09,24,00,39,12.20
2009,09,24,00,40,12.20
2009,09,24,00,41,12.20
2009,09,24,00,42,12.20
2009,09,24,00,43,12.10
2009,09,24,00,44,12.10
2009,09,24,00,45,12.10
2009,09,24,00,46,12.10
2009,09,24,00,47,12.00
2009,09,24,00,48,12.00
2009,09,24,00,49,11.90
2009,09,24,00,50,11.90
2009,09,24,00,51,11.90
2009,09,24,00,52,11.90
2009,09,24,00,53,11.80
2009,09,24,00,54,11.80
2009,09,24,00,55,11.80
2009,09,24,00,56,11.80
2009,09,24,00,57,11.80
2009,09,24,00,58,11.80
2009,09,24,00,59,11.80
2009,09,24,01,00,11.80
2009,09,24,01,01,11.80
2009,09,24,01,02,11.70
2009,09,24,01,03,11.70
2009,09,24,01,04,11.70
2009,09,24,01,05,11.70
2009,09,24,01,06,11.70
2009,09,24,01,07,11.60
2009,09,24,01,08,11.60
2009,09,24,01,09,11.60
2009,09,24,01,10,11.60
2009,09,24,01,11,11.60
2009,09,24,01,12,11.50
2009,09,24,01,13,11.50
2009,09,24,01,14,11.50
2009,09,24,01,15,11.50
2009,09,24,01,16,11.40
2009,09,24,01,17,11.40
2009,09,24,01,18,11.40
2009,09,24,01,19,11.40
2009,09,24,01,20,11.30
2009,09,24,01,21,11.30
2009,09,24,01,22,11.30
2009,09,24,01,23,11.30
2009,09,24,01,24,11.30
2009,09,24,01,25,11.20
2009,09,24,01,26,11.20
2009,09,24,01,27,11.20
2009,09,24,01,28,11.20
2009,09,24,01,29,11.20
2009,09,24,01,30,11.10
2009,09,24,01,31,11.10
2009,09,24,01,32,11.10
2009,09,24,01,33,11.10
2009,09,24,01,34,11.10
2009,09,24,01,35,11.00
2009,09,24,01,36,11.00
2009,09,24,01,37,11.00
2009,09,24,01,38,10.90
2009,09,24,01,39,10.90
2009,09,24,01,40,10.90
2009,09,24,01,41,10.90
2009,09,24,01,42,10.90
2009,09,24,01,43,10.80
2009,09,24,01,44,10.80
2009,09,24,01,45,10.80
2009,09,24,01,46,10.80
2009,09,24,01,47,10.80
2009,09,24,01,48,10.80
2009,09,24,01,49,10.80
2009,09,24,01,50,10.80
2009,09,24,01,51,10.70
2009,09,24,01,52,10.70
2009,09,24,01,53,10.70
2009,09,24,01,54,10.70
2009,09,24,01,55,10.70
2009,09,24,01,56,10.70
2009,09,24,01,57,10.70
2009,09,24,01,58,10.60
2009,09,24,01,59,10.60
2009,09,24,02,00,10.60
2009,09,24,02,01,10.60
2009,09,24,02,02,10.60
2009,09,24,02,03,10.60
2009,09,24,02,04,10.60
2009,09,24,02,05,10.60
2009,09,24,02,06,10.60
2009,09,24,02,07,10.60
2009,09,24,02,08,10.50
2009,09,24,02,09,10.50
2009,09,24,02,10,10.50
2009,09,24,02,11,10.50
2009,09,24,02,12,10.40
2009,09,24,02,13,10.40
2009,09,24,02,14,10.40
2009,09,24,02,15,10.40
2009,09,24,02,16,10.40
2009,09,24,02,17,10.40
2009,09,24,02,18,10.30
2009,09,24,02,19,10.30
2009,09,24,02,20,10.30
2009,09,24,02,21,10.30
2009,09,24,02,22,10.30
2009,09,24,02,23,10.30
2009,09,24,02,24,10.30
2009,09,24,02,25,10.30
2009,09,24,02,26,10.30
2009,09,24,02,27,10.30
2009,09,24,02,28,10.30
2009,09,24,02,29,10.30
2009,09,24,02,30,10.30
2009,09,24,02,31,10.30
2009,09,24,02,32,10.30
2009,09,24,02,33,10.30
2009,09,24,02,34,10.20
2009,09,24,02,35,10.20
2009,09,24,02,36,10.20
2009,09,24,02,37,10.20
2009,09,24,02,38,10.20
2009,09,24,02,39,10.20
2009,09,24,02,40,10.20
2009,09,24,02,41,10.20
2009,09,24,02,42,10.20
2009,09,24,02,43,10.20
2009,09,24,02,44,10.20
2009,09,24,02,45,10.20
2009,09,24,02,46,10.20
2009,09,24,02,47,10.20
2009,09,24,02,48,10.20
2009,09,24,02,49,10.10
2009,09,24,02,50,10.10
2009,09,24,02,51,10.10
2009,09,24,02,52,10.10
2009,09,24,02,53,10.10
2009,09,24,02,54,10.10
2009,09,24,02,55,10.10
2009,09,24,02,56,10.10
2009,09,24,02,57,10.10
2009,09,24,02,58,10.10
2009,09,24,02,59,10.10
2009,09,24,03,00,10.10
2009,09,24,03,01,10.10
2009,09,24,03,02,10.00
2009,09,24,03,03,10.00
2009,09,24,03,04,10.00
2009,09,24,03,05,10.00
2009,09,24,03,06,10.00
2009,09,24,03,07,10.00
2009,09,24,03,08,10.00
2009,09,24,03,09,9.90
2009,09,24,03,10,9.90
2009,09,24,03,11,9.90
2009,09,24,03,12,9.90
2009,09,24,03,13,9.90
2009,09,24,03,14,9.90
2009,09,24,03,15,9.80
2009,09,24,03,16,9.80
2009,09,24,03,17,9.80
2009,09,24,03,18,9.80
2009,09,24,03,19,9.80
2009,09,24,03,20,9.80
2009,09,24,03,21,9.80
2009,09,24,03,22,9.80
2009,09,24,03,23,9.80
2009,09,24,03,24,9.80
2009,09,24,03,25,9.80
2009,09,24,03,26,9.80
2009,09,24,03,27,9.80
2009,09,24,03,28,9.80
2009,09,24,03,29,9.80
2009,09,24,03,30,9.80
2009,09,24,03,31,9.80
2009,09,24,03,32,9.80
2009,09,24,03,33,9.80
2009,09,24,03,34,9.80
2009,09,24,03,35,9.80
2009,09,24,03,36,9.80
2009,09,24,03,37,9.80
2009,09,24,03,38,9.80
2009,09,24,03,39,9.80
2009,09,24,03,40,9.70
2009,09,24,03,41,9.70
2009,09,24,03,42,9.70
2009,09,24,03,43,9.70
2009,09,24,03,44,9.70
2009,09,24,03,45,9.70
2009,09,24,03,46,9.70
2009,09,24,03,47,9.70
2009,09,24,03,48,9.70
2009,09,24,03,49,9.70
2009,09,24,03,50,9.70
2009,09,24,03,51,9.70
2009,09,24,03,52,9.70
2009,09,24,03,53,9.70
2009,09,24,03,54,9.70
2009,09,24,03,55,9.70
2009,09,24,03,56,9.70
2009,09,24,03,57,9.70
2009,09,24,03,58,9.70
2009,09,24,03,59,9.70
2009,09,24,04,00,9.60
2009,09,24,04,01,9.60
2009,09,24,04,02,9.60
2009,09,24,04,03,9.60
2009,09,24,04,04,9.60
2009,09,24,04,05,9.60
2009,09,24,04,06,9.60
2009,09,24,04,19,9.60
2009,09,24,04,20,9.60
2009,09,24,04,21,9.60
2009,09,24,04,22,9.60
2009,09,24,04,23,9.60
2009,09,24,04,24,9.60
2009,09,24,04,25,9.60
2009,09,24,04,26,9.60
2009,09,24,04,27,9.60
2009,09,24,04,28,9.50
2009,09,24,04,29,9.50
2009,09,24,04,30,9.50
2009,09,24,04,31,9.50
2009,09,24,04,32,9.40
2009,09,24,04,33,9.40
2009,09,24,04,34,9.40
2009,09,24,04,35,9.40
2009,09,24,04,36,9.40
2009,09,24,04,37,9.40
2009,09,24,04,38,9.40
2009,09,24,04,39,9.40
2009,09,24,04,40,9.40
2009,09,24,04,41,9.40
2009,09,24,04,42,9.40
2009,09,24,04,43,9.40
2009,09,24,04,44,9.40
2009,09,24,04,45,9.30
2009,09,24,04,46,9.30
2009,09,24,04,47,9.40
2009,09,24,04,48,9.30
2009,09,24,04,49,9.30
2009,09,24,04,50,9.30
2009,09,24,04,51,9.30
2009,09,24,04,52,9.30
2009,09,24,04,53,9.30
2009,09,24,04,54,9.30
2009,09,24,04,55,9.30
2009,09,24,04,56,9.30
2009,09,24,04,57,9.30
2009,09,24,04,58,9.30
2009,09,24,04,59,9.30
2009,09,24,05,00,9.30
2009,09,24,05,01,9.30
2009,09,24,05,02,9.30
2009,09,24,05,03,9.30
2009,09,24,05,04,9.30
2009,09,24,05,05,9.30
2009,09,24,05,06,9.30
2009,09,24,05,07,9.30
2009,09,24,05,08,9.20
2009,09,24,05,09,9.20
2009,09,24,05,10,9.20
2009,09,24,05,11,9.20
2009,09,24,05,12,9.20
2009,09,24,05,13,9.20
2009,09,24,05,14,9.20
2009,09,24,05,15,9.20
2009,09,24,05,16,9.20
2009,09,24,05,17,9.20
2009,09,24,05,18,9.20
2009,09,24,05,19,9.20
2009,09,24,05,20,9.20
2009,09,24,05,21,9.20
2009,09,24,05,22,9.20
2009,09,24,05,23,9.20
2009,09,24,05,24,9.20
2009,09,24,05,25,9.20
2009,09,24,05,26,9.20
2009,09,24,05,27,9.20
2009,09,24,05,28,9.20
2009,09,24,05,29,9.10
2009,09,24,05,30,9.20
2009,09,24,05,31,9.10
2009,09,24,05,32,9.10
2009,09,24,05,33,9.10
2009,09,24,05,34,9.10
2009,09,24,05,35,9.10
2009,09,24,05,36,9.10
2009,09,24,05,37,9.10
2009,09,24,05,38,9.10
2009,09,24,05,39,9.10
2009,09,24,05,40,9.10
2009,09,24,05,41,9.10
2009,09,24,05,42,9.10
2009,09,24,05,43,9.10
2009,09,24,05,44,9.10
2009,09,24,05,45,9.10
2009,09,24,05,46,9.10
2009,09,24,05,47,9.10
2009,09,24,05,48,9.10
2009,09,24,05,49,9.10
2009,09,24,05,50,9.10
2009,09,24,05,51,9.10
2009,09,24,05,52,9.10
2009,09,24,05,53,9.10
2009,09,24,05,54,9.10
2009,09,24,05,55,9.10
2009,09,24,05,56,9.10
2009,09,24,05,57,9.10
2009,09,24,05,58,9.10
2009,09,24,05,59,9.10
2009,09,24,06,00,9.10
2009,09,24,06,01,9.10
2009,09,24,06,02,9.10
2009,09,24,06,03,9.10
2009,09,24,06,04,9.10
2009,09,24,06,05,9.10
2009,09,24,06,06,9.10
2009,09,24,06,07,9.10
2009,09,24,06,08,9.10
2009,09,24,06,09,9.00
2009,09,24,06,10,9.00
2009,09,24,06,11,9.00
2009,09,24,06,12,9.00
2009,09,24,06,13,9.00
2009,09,24,06,14,9.00
2009,09,24,06,15,9.00
2009,09,24,06,16,9.00
2009,09,24,06,17,9.00
2009,09,24,06,18,9.10
2009,09,24,06,19,9.10
2009,09,24,06,20,9.10
2009,09,24,06,21,9.10
2009,09,24,06,22,9.10
2009,09,24,06,23,9.10
2009,09,24,06,24,9.10
2009,09,24,06,25,9.10
2009,09,24,06,26,9.10
2009,09,24,06,27,9.10
2009,09,24,06,28,9.10
2009,09,24,06,29,9.10
2009,09,24,06,30,9.10
2009,09,24,06,31,9.10
2009,09,24,06,32,9.10
2009,09,24,06,33,9.10
2009,09,24,06,34,9.10
2009,09,24,06,35,9.10
2009,09,24,06,36,9.10
2009,09,24,06,37,9.10
2009,09,24,06,38,9.10
2009,09,24,06,39,9.10
2009,09,24,06,40,9.10
2009,09,24,06,41,9.00
2009,09,24,06,42,9.00
2009,09,24,06,43,9.00
2009,09,24,06,44,9.00
2009,09,24,06,45,9.00
2009,09,24,06,46,9.00
2009,09,24,06,47,9.00
2009,09,24,06,48,9.00
2009,09,24,06,49,8.90
2009,09,24,06,50,8.90
2009,09,24,06,51,8.90
2009,09,24,06,52,8.90
2009,09,24,06,53,8.90
2009,09,24,06,54,8.90
2009,09,24,06,55,8.90
2009,09,24,06,56,8.90
2009,09,24,06,57,8.90
2009,09,24,06,58,8.90
2009,09,24,06,59,8.90
2009,09,24,07,00,8.90
2009,09,24,07,01,8.90
2009,09,24,07,02,8.90
2009,09,24,07,03,8.90
2009,09,24,07,04,8.90
2009,09,24,07,05,8.90
2009,09,24,07,06,8.90
2009,09,24,07,07,8.80
2009,09,24,07,08,8.80
2009,09,24,07,09,8.80
2009,09,24,07,10,8.80
2009,09,24,07,11,8.80
2009,09,24,07,12,8.80
2009,09,24,07,13,8.80
2009,09,24,07,14,8.80
2009,09,24,07,15,8.80
2009,09,24,07,16,8.80
2009,09,24,07,17,8.80
2009,09,24,07,18,8.80
2009,09,24,07,19,8.80
2009,09,24,07,20,8.80
2009,09,24,07,21,8.80
2009,09,24,07,22,8.80
2009,09,24,07,23,8.80
2009,09,24,07,24,8.80
2009,09,24,07,25,8.80
2009,09,24,07,26,8.80
2009,09,24,07,27,8.80
2009,09,24,07,28,8.80
2009,09,24,07,29,8.80
2009,09,24,07,30,8.80
2009,09,24,07,31,8.80
2009,09,24,07,32,8.80
2009,09,24,07,33,8.80
2009,09,24,07,34,8.80
2009,09,24,07,35,8.80
2009,09,24,07,36,8.80
2009,09,24,07,37,8.80
2009,09,24,07,38,8.80
2009,09,24,07,39,8.80
2009,09,24,07,40,8.80
2009,09,24,07,41,8.80
2009,09,24,07,42,8.80
2009,09,24,07,43,8.80
2009,09,24,07,44,8.80
2009,09,24,07,45,8.80
2009,09,24,07,46,8.80
2009,09,24,07,47,8.80
2009,09,24,07,48,8.80
2009,09,24,07,49,8.80
2009,09,24,07,50,8.80
2009,09,24,07,51,8.80
2009,09,24,07,52,8.80
2009,09,24,07,53,8.80
2009,09,24,07,54,8.90
2009,09,24,07,55,8.90
2009,09,24,07,56,8.90
2009,09,24,07,57,8.90
2009,09,24,07,58,8.90
2009,09,24,07,59,8.90
2009,09,24,08,00,8.90
2009,09,24,08,01,9.00
2009,09,24,08,02,9.00
2009,09,24,08,03,9.00
2009,09,24,08,04,9.00
2009,09,24,08,05,9.00
2009,09,24,08,06,9.00
2009,09,24,08,07,9.10
2009,09,24,08,08,9.10
2009,09,24,08,09,9.10
2009,09,24,08,10,9.10
2009,09,24,08,11,9.10
2009,09,24,08,12,9.20
2009,09,24,08,13,9.20
2009,09,24,08,14,9.20
2009,09,24,08,15,9.20
2009,09,24,08,16,9.30
2009,09,24,08,17,9.30
2009,09,24,08,18,9.30
2009,09,24,08,19,9.30
2009,09,24,08,20,9.30
2009,09,24,08,21,9.40
2009,09,24,08,22,9.40
2009,09,24,08,23,9.40
2009,09,24,08,24,9.50
2009,09,24,08,25,9.60
2009,09,24,08,26,9.60
2009,09,24,08,27,9.70
2009,09,24,08,28,9.80
2009,09,24,08,29,9.80
2009,09,24,08,30,9.90
2009,09,24,08,31,10.00
2009,09,24,08,32,10.10
2009,09,24,08,33,10.20
2009,09,24,08,34,10.30
2009,09,24,08,35,10.40
2009,09,24,08,36,10.50
2009,09,24,08,37,10.60
2009,09,24,08,38,10.70
2009,09,24,08,39,10.80
2009,09,24,08,40,10.90
2009,09,24,08,41,11.00
2009,09,24,08,42,11.20
2009,09,24,08,43,11.30
2009,09,24,08,44,11.40
2009,09,24,08,45,11.50
2009,09,24,08,46,11.60
2009,09,24,08,47,11.70
2009,09,24,08,48,11.80
2009,09,24,08,49,11.90
2009,09,24,08,50,12.00
2009,09,24,08,51,12.20
2009,09,24,08,52,12.30
2009,09,24,08,53,12.40
2009,09,24,08,54,12.50
2009,09,24,08,55,12.60
2009,09,24,08,56,12.60
2009,09,24,08,57,12.70
2009,09,24,08,58,12.80
2009,09,24,08,59,12.80
2009,09,24,09,00,12.90
2009,09,24,09,01,13.00
2009,09,24,09,02,13.10
2009,09,24,09,03,13.20
2009,09,24,09,04,13.30
2009,09,24,09,05,13.40
2009,09,24,09,06,13.60
2009,09,24,09,07,13.70
2009,09,24,09,08,13.80
2009,09,24,09,09,13.80
2009,09,24,09,10,13.90
2009,09,24,09,11,14.00
2009,09,24,09,12,14.10
2009,09,24,09,13,14.10
2009,09,24,09,14,14.20
2009,09,24,09,15,14.20
2009,09,24,09,16,14.20
2009,09,24,09,17,14.30
2009,09,24,09,18,14.30
2009,09,24,09,19,14.40
2009,09,24,09,20,14.40
2009,09,24,09,21,14.50
2009,09,24,09,22,14.50
2009,09,24,09,23,14.60
2009,09,24,09,24,14.60
2009,09,24,09,25,14.70
2009,09,24,09,26,14.70
2009,09,24,09,27,14.80
2009,09,24,09,28,14.90
2009,09,24,09,29,14.90
2009,09,24,09,30,15.00
2009,09,24,09,31,15.00
2009,09,24,09,32,15.00
2009,09,24,09,33,15.00
2009,09,24,09,34,15.00
2009,09,24,09,35,15.00
2009,09,24,09,36,15.00
2009,09,24,09,37,15.00
2009,09,24,09,38,15.10
2009,09,24,09,39,15.20
2009,09,24,09,40,15.20
2009,09,24,09,41,15.30
2009,09,24,09,42,15.30
2009,09,24,09,43,15.30
2009,09,24,09,44,15.40
2009,09,24,09,45,15.40
2009,09,24,09,46,15.40
2009,09,24,09,47,15.40
2009,09,24,09,48,15.40
2009,09,24,09,49,15.40
2009,09,24,09,50,15.40
2009,09,24,09,51,15.40
2009,09,24,09,52,15.40
2009,09,24,09,53,15.40
2009,09,24,09,54,15.40
2009,09,24,09,55,15.30
2009,09,24,09,56,15.30
2009,09,24,09,57,15.30
2009,09,24,09,58,15.40
2009,09,24,09,59,15.40
2009,09,24,10,00,15.50
2009,09,24,10,01,15.60
2009,09,24,10,02,15.60
2009,09,24,10,03,15.70
2009,09,24,10,04,15.70
2009,09,24,10,05,15.70
2009,09,24,10,06,15.80
2009,09,24,10,07,15.80
2009,09,24,10,08,15.80
2009,09,24,10,09,15.90
2009,09,24,10,10,15.90
2009,09,24,10,11,15.90
2009,09,24,10,12,15.90
2009,09,24,10,13,15.90
2009,09,24,10,14,15.90
2009,09,24,10,15,15.90
2009,09,24,10,16,15.80
2009,09,24,10,17,15.80
2009,09,24,10,18,15.80
2009,09,24,10,19,15.80
2009,09,24,10,20,15.80
2009,09,24,10,21,15.80
2009,09,24,10,22,15.80
2009,09,24,10,23,15.80
2009,09,24,10,24,15.80
2009,09,24,10,25,15.90
2009,09,24,10,26,15.90
2009,09,24,10,27,15.90
2009,09,24,10,28,15.90
2009,09,24,10,29,15.90
2009,09,24,10,30,15.90
2009,09,24,10,31,15.90
2009,09,24,10,32,15.90
2009,09,24,10,33,15.90
2009,09,24,10,34,16.00
2009,09,24,10,35,16.00
2009,09,24,10,36,16.00
2009,09,24,10,37,16.00
2009,09,24,10,38,16.00
2009,09,24,10,39,16.00
2009,09,24,10,40,15.90
2009,09,24,10,41,16.00
2009,09,24,10,42,16.00
2009,09,24,10,43,16.00
2009,09,24,10,44,15.90
2009,09,24,10,45,16.00
2009,09,24,10,46,16.00
2009,09,24,10,47,16.10
2009,09,24,10,48,16.10
2009,09,24,10,49,16.20
2009,09,24,10,50,16.30
2009,09,24,10,51,16.40
2009,09,24,10,52,16.50
2009,09,24,10,53,16.50
2009,09,24,10,54,16.60
2009,09,24,10,55,16.70
2009,09,24,10,56,16.70
2009,09,24,10,57,16.70
2009,09,24,10,58,16.70
2009,09,24,10,59,16.60
2009,09,24,11,00,16.60
2009,09,24,11,01,16.60
2009,09,24,11,02,16.60
2009,09,24,11,03,16.70
2009,09,24,11,04,16.70
2009,09,24,11,05,16.70
2009,09,24,11,06,16.70
2009,09,24,11,07,16.70
2009,09,24,11,08,16.60
2009,09,24,11,09,16.50
2009,09,24,11,10,16.40
2009,09,24,11,11,16.40
2009,09,24,11,12,16.40
2009,09,24,11,13,16.30
2009,09,24,11,14,16.30
2009,09,24,11,15,16.30
2009,09,24,11,16,16.30
2009,09,24,11,17,16.30
2009,09,24,11,18,16.30
2009,09,24,11,19,16.20
2009,09,24,11,20,16.30
2009,09,24,11,21,16.30
2009,09,24,11,22,16.20
2009,09,24,11,23,16.20
2009,09,24,11,24,16.10
2009,09,24,11,25,16.10
2009,09,24,11,26,16.20
2009,09,24,11,27,16.20
2009,09,24,11,28,16.20
2009,09,24,11,29,16.30
2009,09,24,11,30,16.40
2009,09,24,11,31,16.50
2009,09,24,11,32,16.50
2009,09,24,11,33,16.60
2009,09,24,11,34,16.60
2009,09,24,11,35,16.70
2009,09,24,11,36,16.70
2009,09,24,11,37,16.70
2009,09,24,11,38,16.70
2009,09,24,11,39,16.70
2009,09,24,11,40,16.70
2009,09,24,11,41,16.60
2009,09,24,11,42,16.60
2009,09,24,11,43,16.60
2009,09,24,11,44,16.60
2009,09,24,11,45,16.60
2009,09,24,11,46,16.60
2009,09,24,11,47,16.70
2009,09,24,11,48,16.70
2009,09,24,11,49,16.80
2009,09,24,11,50,16.80
2009,09,24,11,51,16.80
2009,09,24,11,52,16.90
2009,09,24,11,53,16.90
2009,09,24,11,54,16.90
2009,09,24,11,55,17.00
2009,09,24,11,56,17.10
2009,09,24,11,57,17.00
2009,09,24,11,58,16.90
2009,09,24,11,59,16.90
2009,09,24,12,00,16.90
2009,09,24,12,01,16.90
2009,09,24,12,02,16.90
2009,09,24,12,03,16.90
2009,09,24,12,04,16.90
2009,09,24,12,05,16.90
2009,09,24,12,06,16.80
2009,09,24,12,07,16.90
2009,09,24,12,08,16.90
2009,09,24,12,09,16.90
2009,09,24,12,10,16.90
2009,09,24,12,11,16.80
2009,09,24,12,12,16.80
2009,09,24,12,13,16.90
2009,09,24,12,14,16.90
2009,09,24,12,15,16.90
2009,09,24,12,16,16.90
2009,09,24,12,17,17.00
2009,09,24,12,18,17.00
2009,09,24,12,19,17.10
2009,09,24,12,20,17.10
2009,09,24,12,21,17.10
2009,09,24,12,22,17.10
2009,09,24,12,23,17.20
2009,09,24,12,24,17.30
2009,09,24,12,25,17.30
2009,09,24,12,26,17.20
2009,09,24,12,27,17.20
2009,09,24,12,28,17.20
2009,09,24,12,29,17.20
2009,09,24,12,30,17.20
2009,09,24,12,31,17.20
2009,09,24,12,32,17.30
2009,09,24,12,33,17.30
2009,09,24,12,34,17.30
2009,09,24,12,35,17.30
2009,09,24,12,36,17.30
2009,09,24,12,37,17.30
2009,09,24,12,38,17.30
2009,09,24,12,39,17.30
2009,09,24,12,40,17.30
2009,09,24,12,41,17.30
2009,09,24,12,42,17.30
2009,09,24,12,43,17.30
2009,09,24,12,44,17.30
2009,09,24,12,45,17.30
2009,09,24,12,46,17.40
2009,09,24,12,47,17.40
2009,09,24,12,48,17.40
2009,09,24,12,49,17.30
2009,09,24,12,50,17.30
2009,09,24,12,51,17.30
2009,09,24,12,52,17.30
2009,09,24,12,53,17.30
2009,09,24,12,54,17.30
2009,09,24,12,55,17.30
2009,09,24,12,56,17.30
2009,09,24,12,57,17.30
2009,09,24,12,58,17.30
2009,09,24,12,59,17.30
2009,09,24,13,00,17.40
2009,09,24,13,01,17.40
2009,09,24,13,02,17.40
2009,09,24,13,03,17.40
2009,09,24,13,04,17.50
2009,09,24,13,05,17.60
2009,09,24,13,06,17.60
2009,09,24,13,07,17.60
2009,09,24,13,08,17.60
2009,09,24,13,09,17.70
2009,09,24,13,10,17.70
2009,09,24,13,11,17.70
2009,09,24,13,12,17.70
2009,09,24,13,13,17.70
2009,09,24,13,14,17.70
2009,09,24,13,15,17.70
2009,09,24,13,16,17.70
2009,09,24,13,17,17.60
2009,09,24,13,18,17.60
2009,09,24,13,19,17.60
2009,09,24,13,20,17.60
2009,09,24,13,21,17.60
2009,09,24,13,22,17.70
2009,09,24,13,23,17.70
2009,09,24,13,24,17.80
2009,09,24,13,25,17.80
2009,09,24,13,26,17.80
2009,09,24,13,27,17.70
2009,09,24,13,28,17.70
2009,09,24,13,29,17.70
2009,09,24,13,30,17.70
2009,09,24,13,31,17.80
2009,09,24,13,32,17.90
2009,09,24,13,33,18.00
2009,09,24,13,34,18.00
2009,09,24,13,35,17.90
2009,09,24,13,36,17.80
2009,09,24,13,37,17.70
2009,09,24,13,38,17.50
2009,09,24,13,39,17.50
2009,09,24,13,40,17.30
2009,09,24,13,41,17.30
2009,09,24,13,42,17.20
2009,09,24,13,43,17.20
2009,09,24,13,44,17.20
2009,09,24,13,45,17.10
2009,09,24,13,46,17.10
2009,09,24,13,47,17.10
2009,09,24,13,48,17.10
2009,09,24,13,49,17.20
2009,09,24,13,50,17.20
2009,09,24,13,51,17.20
2009,09,24,13,52,17.30
2009,09,24,13,53,17.30
2009,09,24,13,54,17.40
2009,09,24,13,55,17.50
2009,09,24,13,56,17.60
2009,09,24,13,57,17.60
2009,09,24,13,58,17.70
2009,09,24,13,59,17.70
2009,09,24,14,00,17.50
2009,09,24,14,01,17.50
2009,09,24,14,02,17.40
2009,09,24,14,03,17.30
2009,09,24,14,04,17.30
2009,09,24,14,05,17.30
2009,09,24,14,06,17.30
2009,09,24,14,07,17.30
2009,09,24,14,08,17.20
2009,09,24,14,09,17.30
2009,09,24,14,10,17.30
2009,09,24,14,11,17.30
2009,09,24,14,12,17.30
2009,09,24,14,13,17.40
2009,09,24,14,14,17.40
2009,09,24,14,15,17.40
2009,09,24,14,16,17.50
2009,09,24,14,17,17.50
2009,09,24,14,18,17.60
2009,09,24,14,19,17.60
2009,09,24,14,20,17.70
2009,09,24,14,21,17.70
2009,09,24,14,22,17.70
2009,09,24,14,23,17.60
2009,09,24,14,24,17.60
2009,09,24,14,25,17.60
2009,09,24,14,26,17.60
2009,09,24,14,27,17.60
2009,09,24,14,28,17.60
2009,09,24,14,29,17.70
2009,09,24,14,30,17.70
2009,09,24,14,31,17.70
2009,09,24,14,32,17.70
2009,09,24,14,33,17.70
2009,09,24,14,34,17.70
2009,09,24,14,35,17.70
2009,09,24,14,36,17.70
2009,09,24,14,37,17.70
2009,09,24,14,38,17.70
2009,09,24,14,39,17.70
2009,09,24,14,40,17.80
2009,09,24,14,41,17.80
2009,09,24,14,42,17.80
2009,09,24,14,43,17.90
2009,09,24,14,44,18.00
2009,09,24,14,45,18.10
2009,09,24,14,46,18.10
2009,09,24,14,47,18.20
2009,09,24,14,48,18.20
2009,09,24,14,49,18.20
2009,09,24,14,50,18.30
2009,09,24,14,51,18.30
2009,09,24,14,52,18.30
2009,09,24,14,53,18.30
2009,09,24,14,54,18.30
2009,09,24,14,55,18.20
2009,09,24,14,56,18.00
2009,09,24,14,57,18.00
2009,09,24,14,58,17.80
2009,09,24,14,59,17.70
2009,09,24,15,00,17.60
2009,09,24,15,01,17.60
2009,09,24,15,02,17.50
2009,09,24,15,03,17.50
2009,09,24,15,04,17.50
2009,09,24,15,05,17.40
2009,09,24,15,06,17.30
2009,09,24,15,07,17.20
2009,09,24,15,08,17.30
2009,09,24,15,09,17.30
2009,09,24,15,10,17.30
2009,09,24,15,11,17.30
2009,09,24,15,12,17.30
2009,09,24,15,13,17.30
2009,09,24,15,14,17.30
2009,09,24,15,15,17.40
2009,09,24,15,16,17.40
2009,09,24,15,17,17.50
2009,09,24,15,18,17.50
2009,09,24,15,19,17.60
2009,09,24,15,20,17.60
2009,09,24,15,21,17.70
2009,09,24,15,22,17.80
2009,09,24,15,23,17.80
2009,09,24,15,24,17.70
2009,09,24,15,25,17.60
2009,09,24,15,26,17.50
2009,09,24,15,27,17.50
2009,09,24,15,28,17.60
2009,09,24,15,29,17.60
2009,09,24,15,30,17.50
2009,09,24,15,31,17.50
2009,09,24,15,32,17.50
2009,09,24,15,33,17.50
2009,09,24,15,34,17.50
2009,09,24,15,35,17.50
2009,09,24,15,36,17.50
2009,09,24,15,37,17.40
2009,09,24,15,38,17.40
2009,09,24,15,39,17.40
2009,09,24,15,40,17.40
2009,09,24,15,41,17.40
2009,09,24,15,42,17.40
2009,09,24,15,43,17.30
2009,09,24,15,44,17.30
2009,09,24,15,45,17.30
2009,09,24,15,46,17.30
2009,09,24,15,47,17.20
2009,09,24,15,48,17.20
2009,09,24,15,49,17.20
2009,09,24,15,50,17.20
2009,09,24,15,51,17.20
2009,09,24,15,52,17.10
2009,09,24,15,53,17.00
2009,09,24,15,54,17.00
2009,09,24,15,55,17.00
2009,09,24,15,56,17.00
2009,09,24,15,57,17.00
2009,09,24,15,58,17.10
2009,09,24,15,59,17.10
2009,09,24,16,00,17.10
2009,09,24,16,01,17.20
2009,09,24,16,02,17.20
2009,09,24,16,03,17.20
2009,09,24,16,04,17.20
2009,09,24,16,05,17.20
2009,09,24,16,06,17.20
2009,09,24,16,07,17.20
2009,09,24,16,08,17.10
2009,09,24,16,09,17.10
2009,09,24,16,10,17.00
2009,09,24,16,11,17.00
2009,09,24,16,12,17.00
2009,09,24,16,13,17.00
2009,09,24,16,14,17.00
2009,09,24,16,15,17.00
2009,09,24,16,16,17.00
2009,09,24,16,17,17.00
2009,09,24,16,18,17.00
2009,09,24,16,19,17.00
2009,09,24,16,20,17.00
2009,09,24,16,21,17.00
2009,09,24,16,22,17.00
2009,09,24,16,23,17.00
2009,09,24,16,24,17.00
2009,09,24,16,25,17.00
2009,09,24,16,26,17.00
2009,09,24,16,27,16.90
2009,09,24,16,28,16.90
2009,09,24,16,29,16.90
2009,09,24,16,30,16.90
2009,09,24,16,31,16.90
2009,09,24,16,32,16.80
2009,09,24,16,33,16.80
2009,09,24,16,34,16.80
2009,09,24,16,35,16.70
2009,09,24,16,36,16.70
2009,09,24,16,37,16.70
2009,09,24,16,38,16.70
2009,09,24,16,39,16.70
2009,09,24,16,40,16.70
2009,09,24,16,41,16.70
2009,09,24,16,42,16.70
2009,09,24,16,43,16.70
2009,09,24,16,44,16.60
2009,09,24,16,45,16.60
2009,09,24,16,46,16.60
2009,09,24,16,47,16.60
2009,09,24,16,48,16.60
2009,09,24,16,49,16.60
2009,09,24,16,50,16.60
2009,09,24,16,51,16.60
2009,09,24,16,52,16.60
2009,09,24,16,53,16.60
2009,09,24,16,54,16.60
2009,09,24,16,55,16.60
2009,09,24,16,56,16.60
2009,09,24,16,57,16.60
2009,09,24,16,58,16.60
2009,09,24,16,59,16.70
2009,09,24,17,00,16.70
2009,09,24,17,01,16.70
2009,09,24,17,02,16.70
2009,09,24,17,03,16.70
2009,09,24,17,04,16.70
2009,09,24,17,05,16.70
2009,09,24,17,06,16.70
2009,09,24,17,07,16.70
2009,09,24,17,08,16.70
2009,09,24,17,09,16.70
2009,09,24,17,10,16.70
2009,09,24,17,11,16.70
2009,09,24,17,12,16.60
2009,09,24,17,13,16.60
2009,09,24,17,14,16.60
2009,09,24,17,15,16.60
2009,09,24,17,16,16.60
2009,09,24,17,17,16.60
2009,09,24,17,18,16.60
2009,09,24,17,19,16.60
2009,09,24,17,20,16.60
2009,09,24,17,21,16.60
2009,09,24,17,22,16.50
2009,09,24,17,23,16.50
2009,09,24,17,24,16.50
2009,09,24,17,25,16.50
2009,09,24,17,26,16.50
2009,09,24,17,27,16.50
2009,09,24,17,28,16.40
2009,09,24,17,29,16.40
2009,09,24,17,30,16.40
2009,09,24,17,31,16.40
2009,09,24,17,32,16.40
2009,09,24,17,33,16.40
2009,09,24,17,34,16.40
2009,09,24,17,35,16.40
2009,09,24,17,36,16.30
2009,09,24,17,37,16.30
2009,09,24,17,38,16.30
2009,09,24,17,39,16.30
2009,09,24,17,40,16.30
2009,09,24,17,41,16.30
2009,09,24,17,42,16.30
2009,09,24,17,43,16.30
2009,09,24,17,44,16.20